Powrót do katalogu

FENGYUN 1C DEB

AktywnySSO
NORAD 30182·DEBRIS·🇨🇳 China

Wystrzelony May 10, 1999 z Taiyuan Satellite Launch Center

Loading…

Następne Przeloty (najbliższe 24 godziny)

TLE

ŚwieżeSource: Space-Track

Epoka: Sep 13, 2026, 10:17 UTC

1 30182U 99025UP  26256.42885441  .00000275  00000-0  22550-3 0  9997
2 30182  99.0285 307.7444 0074405 349.3378  23.5750 13.96561999  1310

Śledź FENGYUN 1C DEB w czasie rzeczywistym z AllMySat

Download on the App Store